Time,TemperatureF,DewpointF,PressureIn,WindDirection,WindDirectionDegrees,WindSpeedMPH,WindSpeedGustMPH,Humidity,HourlyPrecipIn,Conditions,Clouds,dailyrainin,SoftwareType,DateUTC
2013-06-17 00:09:00,66.5,60.0,29.85,WSW,256,0.0,0.0,80,0.00,,,0.00,weatherlink.com 1.10,2013-06-17 04:09:00,
2013-06-17 00:23:00,66.1,60.0,29.85,WSW,256,0.0,0.0,80,0.00,,,0.00,weatherlink.com 1.10,2013-06-17 04:23:00,
2013-06-17 00:38:00,65.7,60.0,29.85,WSW,256,0.0,0.0,81,0.00,,,0.00,weatherlink.com 1.10,2013-06-17 04:38:00,
2013-06-17 00:54:00,65.2,60.0,29.86,WSW,256,0.0,0.0,82,0.00,,,0.00,weatherlink.com 1.10,2013-06-17 04:54:00,
2013-06-17 01:10:00,64.7,59.0,29.85,WSW,257,0.0,0.0,82,0.00,,,0.00,weatherlink.com 1.10,2013-06-17 05:10:00,
2013-06-17 01:25:00,64.2,59.0,29.85,WSW,257,0.0,0.0,83,0.00,,,0.00,weatherlink.com 1.10,2013-06-17 05:25:00,
2013-06-17 01:40:00,63.8,59.0,29.85,WSW,256,0.0,0.0,84,0.00,,,0.00,weatherlink.com 1.10,2013-06-17 05:40:00,
2013-06-17 01:55:00,63.4,59.0,29.86,WSW,257,0.0,0.0,85,0.00,,,0.00,weatherlink.com 1.10,2013-06-17 05:55:00,
2013-06-17 02:10:00,62.9,58.0,29.86,WSW,257,0.0,0.0,85,0.00,,,0.00,weatherlink.com 1.10,2013-06-17 06:10:00,
2013-06-17 02:27:00,62.5,58.0,29.86,WSW,256,0.0,0.0,86,0.00,,,0.00,weatherlink.com 1.10,2013-06-17 06:27:00,
2013-06-17 02:42:00,62.1,58.0,29.86,WSW,257,0.0,0.0,86,0.00,,,0.00,weatherlink.com 1.10,2013-06-17 06:42:00,
2013-06-17 02:57:00,61.8,58.0,29.86,WSW,256,0.0,0.0,87,0.00,,,0.00,weatherlink.com 1.10,2013-06-17 06:57:00,
2013-06-17 03:12:00,61.6,58.0,29.86,WSW,256,0.0,0.0,87,0.00,,,0.00,weatherlink.com 1.10,2013-06-17 07:12:00,
2013-06-17 03:27:00,61.6,58.0,29.86,WSW,256,0.0,0.0,88,0.00,,,0.00,weatherlink.com 1.10,2013-06-17 07:27:00,
2013-06-17 03:43:00,61.5,58.0,29.86,WSW,257,0.0,0.0,88,0.00,,,0.00,weatherlink.com 1.10,2013-06-17 07:43:00,
2013-06-17 03:58:00,61.2,58.0,29.86,WSW,256,0.0,0.0,88,0.00,,,0.00,weatherlink.com 1.10,2013-06-17 07:58:00,
2013-06-17 04:13:00,61.1,58.0,29.86,WSW,257,0.0,0.0,88,0.00,,,0.00,weatherlink.com 1.10,2013-06-17 08:13:00,
2013-06-17 04:28:00,60.6,57.0,29.86,WSW,257,0.0,0.0,88,0.00,,,0.00,weatherlink.com 1.10,2013-06-17 08:28:00,
2013-06-17 04:43:00,60.3,57.0,29.87,WSW,257,0.0,0.0,89,0.00,,,0.00,weatherlink.com 1.10,2013-06-17 08:43:00,
2013-06-17 05:00:00,60.7,58.0,29.87,WSW,257,0.0,0.0,90,0.00,,,0.00,weatherlink.com 1.10,2013-06-17 09:00:00,
2013-06-17 05:15:00,61.2,58.0,29.88,WSW,256,0.0,0.0,89,0.00,,,0.00,weatherlink.com 1.10,2013-06-17 09:15:00,
2013-06-17 05:30:00,61.2,58.0,29.88,WSW,257,0.0,0.0,89,0.00,,,0.00,weatherlink.com 1.10,2013-06-17 09:30:00,
2013-06-17 05:45:00,61.4,59.0,29.88,WSW,256,0.0,0.0,90,0.00,,,0.00,weatherlink.com 1.10,2013-06-17 09:45:00,
2013-06-17 06:00:00,62.0,59.0,29.89,WSW,257,0.0,0.0,90,0.00,,,0.00,weatherlink.com 1.10,2013-06-17 10:00:00,
2013-06-17 06:17:00,62.2,59.0,29.89,WSW,256,0.0,0.0,90,0.00,,,0.00,weatherlink.com 1.10,2013-06-17 10:17:00,
2013-06-17 06:32:00,62.3,59.0,29.89,WSW,257,0.0,0.0,90,0.00,,,0.00,weatherlink.com 1.10,2013-06-17 10:32:00,
2013-06-17 06:47:00,62.6,60.0,29.90,WSW,257,0.0,0.0,90,0.00,,,0.00,weatherlink.com 1.10,2013-06-17 10:47:00,
2013-06-17 07:02:00,63.5,61.0,29.90,WSW,249,0.0,0.0,90,0.00,,,0.00,weatherlink.com 1.10,2013-06-17 11:02:00,
2013-06-17 07:19:00,64.4,61.0,29.90,South,180,0.0,0.0,89,0.00,,,0.00,weatherlink.com 1.10,2013-06-17 11:19:00,
2013-06-17 07:33:00,65.0,61.0,29.90,NNW,339,0.0,0.0,88,0.00,,,0.00,weatherlink.com 1.10,2013-06-17 11:33:00,
2013-06-17 07:48:00,65.6,62.0,29.90,WNW,296,0.0,0.0,87,0.00,,,0.00,weatherlink.com 1.10,2013-06-17 11:48:00,
2013-06-17 08:03:00,66.3,62.0,29.91,WNW,296,0.0,0.0,86,0.00,,,0.00,weatherlink.com 1.10,2013-06-17 12:03:00,
2013-06-17 08:18:00,67.4,62.0,29.91,West,260,0.0,3.0,83,0.00,,,0.00,weatherlink.com 1.10,2013-06-17 12:18:00,
2013-06-17 08:35:00,68.5,63.0,29.91,SE,146,0.0,2.0,82,0.00,,,0.00,weatherlink.com 1.10,2013-06-17 12:35:00,
2013-06-17 08:50:00,69.5,63.0,29.90,SW,223,0.0,1.0,81,0.00,,,0.00,weatherlink.com 1.10,2013-06-17 12:50:00,
2013-06-17 09:05:00,70.4,63.0,29.90,West,275,0.0,2.0,78,0.00,,,0.00,weatherlink.com 1.10,2013-06-17 13:05:00,
2013-06-17 09:20:00,72.1,64.0,29.90,WNW,286,0.0,1.0,76,0.00,,,0.00,weatherlink.com 1.10,2013-06-17 13:20:00,
2013-06-17 09:35:00,74.9,65.0,29.90,NW,314,0.0,1.0,70,0.00,,,0.00,weatherlink.com 1.10,2013-06-17 13:35:00,
2013-06-17 09:52:00,76.9,64.0,29.89,SE,141,1.0,1.0,65,0.00,,,0.00,weatherlink.com 1.10,2013-06-17 13:52:00,
2013-06-17 10:07:00,78.1,65.0,29.89,SW,217,0.0,3.0,65,0.00,,,0.00,weatherlink.com 1.10,2013-06-17 14:07:00,
2013-06-17 10:22:00,79.4,65.0,29.89,SSE,168,0.0,1.0,61,0.00,,,0.00,weatherlink.com 1.10,2013-06-17 14:22:00,
2013-06-17 10:37:00,80.5,64.0,29.89,SE,141,0.0,1.0,57,0.00,,,0.00,weatherlink.com 1.10,2013-06-17 14:37:00,
2013-06-17 10:54:00,81.6,65.0,29.88,South,172,0.0,2.0,58,0.00,,,0.00,weatherlink.com 1.10,2013-06-17 14:54:00,
2013-06-17 11:08:00,82.9,63.0,29.88,SW,233,0.0,1.0,51,0.00,,,0.00,weatherlink.com 1.10,2013-06-17 15:08:00,
2013-06-17 11:23:00,84.1,64.0,29.88,SE,126,0.0,1.0,51,0.00,,,0.00,weatherlink.com 1.10,2013-06-17 15:23:00,
2013-06-17 11:38:00,83.7,63.0,29.87,WSW,240,1.0,5.0,50,0.00,,,0.00,weatherlink.com 1.10,2013-06-17 15:38:00,
2013-06-17 11:53:00,84.1,65.0,29.88,NNW,336,0.0,3.0,52,0.00,,,0.00,weatherlink.com 1.10,2013-06-17 15:53:00,
2013-06-17 12:10:00,84.0,65.0,29.88,NNW,348,0.0,3.0,53,0.00,,,0.00,weatherlink.com 1.10,2013-06-17 16:10:00,
2013-06-17 12:25:00,85.1,64.0,29.88,SW,217,0.0,3.0,50,0.00,,,0.00,weatherlink.com 1.10,2013-06-17 16:25:00,
2013-06-17 12:40:00,84.5,64.0,29.88,NE,53,0.0,2.0,50,0.00,,,0.00,weatherlink.com 1.10,2013-06-17 16:40:00,
2013-06-17 12:55:00,84.0,63.0,29.87,NNE,14,0.0,1.0,49,0.00,,,0.00,weatherlink.com 1.10,2013-06-17 16:55:00,
2013-06-17 13:10:00,81.1,64.0,29.87,ESE,122,2.0,2.0,57,0.00,,,0.00,weatherlink.com 1.10,2013-06-17 17:10:00,
2013-06-17 13:27:00,84.0,63.0,29.86,SW,223,0.0,3.0,50,0.00,,,0.00,weatherlink.com 1.10,2013-06-17 17:27:00,
2013-06-17 13:41:00,85.5,66.0,29.86,East,95,0.0,6.0,53,0.00,,,0.00,weatherlink.com 1.10,2013-06-17 17:41:00,
2013-06-17 13:57:00,86.9,65.0,29.85,SW,229,0.0,3.0,48,0.00,,,0.00,weatherlink.com 1.10,2013-06-17 17:57:00,
2013-06-17 14:12:00,86.3,65.0,29.85,South,182,0.0,4.0,49,0.00,,,0.00,weatherlink.com 1.10,2013-06-17 18:12:00,
2013-06-17 14:28:00,86.3,66.0,29.85,SE,126,0.0,8.0,50,0.00,,,0.00,weatherlink.com 1.10,2013-06-17 18:28:00,
2013-06-17 14:43:00,84.9,65.0,29.85,West,260,0.0,5.0,52,0.00,,,0.00,weatherlink.com 1.10,2013-06-17 18:43:00,
2013-06-17 14:59:00,85.8,64.0,29.84,West,264,0.0,5.0,48,0.00,,,0.00,weatherlink.com 1.10,2013-06-17 18:59:00,
2013-06-17 15:14:00,85.2,63.0,29.84,SSW,192,0.0,1.0,47,0.00,,,0.00,weatherlink.com 1.10,2013-06-17 19:14:00,
2013-06-17 15:44:00,85.5,62.0,29.84,South,179,4.0,4.0,46,0.00,,,0.00,weatherlink.com 1.10,2013-06-17 19:44:00,
2013-06-17 16:00:00,83.4,62.0,29.83,SSW,200,0.0,2.0,49,0.00,,,0.00,weatherlink.com 1.10,2013-06-17 20:00:00,
2013-06-17 16:15:00,84.4,64.0,29.83,SW,215,1.0,1.0,51,0.00,,,0.00,weatherlink.com 1.10,2013-06-17 20:15:00,
2013-06-17 16:30:00,84.2,65.0,29.83,SW,231,1.0,1.0,52,0.00,,,0.00,weatherlink.com 1.10,2013-06-17 20:30:00,
2013-06-17 16:45:00,83.9,61.0,29.83,ENE,76,0.0,4.0,46,0.00,,,0.00,weatherlink.com 1.10,2013-06-17 20:45:00,
2013-06-17 17:00:00,82.9,61.0,29.83,South,182,0.0,7.0,47,0.00,,,0.00,weatherlink.com 1.10,2013-06-17 21:00:00,
2013-06-17 17:17:00,82.7,60.0,29.83,SSW,203,0.0,2.0,46,0.00,,,0.00,weatherlink.com 1.10,2013-06-17 21:17:00,
2013-06-17 17:32:00,82.1,59.0,29.84,NNE,21,1.0,5.0,45,0.00,,,0.00,weatherlink.com 1.10,2013-06-17 21:32:00,
2013-06-17 17:47:00,81.2,59.0,29.84,NNW,335,0.0,1.0,47,0.00,,,0.00,weatherlink.com 1.10,2013-06-17 21:47:00,
2013-06-17 18:02:00,79.1,54.0,29.87,NW,304,2.0,11.0,42,0.00,,,0.00,weatherlink.com 1.10,2013-06-17 22:02:00,
2013-06-17 18:18:00,75.1,55.0,29.86,NNE,17,3.0,11.0,50,0.00,,,0.00,weatherlink.com 1.10,2013-06-17 22:18:00,
2013-06-17 18:33:00,73.9,57.0,29.84,WNW,296,2.0,9.0,55,0.00,,,0.00,weatherlink.com 1.10,2013-06-17 22:33:00,
2013-06-17 18:49:00,73.7,58.0,29.85,NW,309,0.0,0.0,58,0.00,,,0.00,weatherlink.com 1.10,2013-06-17 22:49:00,
2013-06-17 19:03:00,73.4,59.0,29.85,SSW,205,0.0,1.0,60,0.00,,,0.00,weatherlink.com 1.10,2013-06-17 23:03:00,
2013-06-17 19:18:00,73.2,58.0,29.86,NNW,338,0.0,0.0,59,0.00,,,0.00,weatherlink.com 1.10,2013-06-17 23:18:00,
2013-06-17 19:35:00,72.8,58.0,29.87,NE,53,0.0,3.0,61,0.00,,,0.00,weatherlink.com 1.10,2013-06-17 23:35:00,
2013-06-17 19:50:00,72.1,59.0,29.88,ENE,58,0.0,2.0,63,0.00,,,0.00,weatherlink.com 1.10,2013-06-17 23:50:00,
2013-06-17 20:05:00,70.9,59.0,29.89,East,87,0.0,4.0,66,0.00,,,0.00,weatherlink.com 1.10,2013-06-18 00:05:00,
2013-06-17 20:20:00,70.0,58.0,29.89,ENE,72,0.0,3.0,67,0.00,,,0.00,weatherlink.com 1.10,2013-06-18 00:20:00,
2013-06-17 20:35:00,69.2,59.0,29.89,ENE,72,0.0,1.0,69,0.00,,,0.00,weatherlink.com 1.10,2013-06-18 00:35:00,
2013-06-17 20:51:00,68.5,58.0,29.89,ENE,72,0.0,0.0,69,0.00,,,0.00,weatherlink.com 1.10,2013-06-18 00:51:00,
2013-06-17 21:07:00,67.7,58.0,29.89,ENE,72,0.0,1.0,71,0.00,,,0.00,weatherlink.com 1.10,2013-06-18 01:07:00,
2013-06-17 21:22:00,67.2,58.0,29.90,ENE,72,0.0,2.0,73,0.00,,,0.00,weatherlink.com 1.10,2013-06-18 01:22:00,
2013-06-17 21:37:00,66.6,58.0,29.91,ENE,72,0.0,0.0,74,0.00,,,0.00,weatherlink.com 1.10,2013-06-18 01:37:00,
2013-06-17 21:52:00,65.9,58.0,29.92,ENE,72,0.0,1.0,76,0.00,,,0.00,weatherlink.com 1.10,2013-06-18 01:52:00,
2013-06-17 22:07:00,65.5,58.0,29.92,ENE,72,0.0,0.0,78,0.00,,,0.00,weatherlink.com 1.10,2013-06-18 02:07:00,
2013-06-17 22:23:00,65.0,57.0,29.92,ENE,72,0.0,0.0,76,0.00,,,0.00,weatherlink.com 1.10,2013-06-18 02:23:00,
2013-06-17 22:38:00,64.6,57.0,29.91,ENE,72,0.0,0.0,76,0.00,,,0.00,weatherlink.com 1.10,2013-06-18 02:38:00,
2013-06-17 22:53:00,64.2,57.0,29.91,ENE,72,0.0,0.0,76,0.00,,,0.00,weatherlink.com 1.10,2013-06-18 02:53:00,
2013-06-17 23:08:00,63.8,57.0,29.92,ENE,72,0.0,0.0,78,0.00,,,0.00,weatherlink.com 1.10,2013-06-18 03:08:00,
2013-06-17 23:25:00,63.6,57.0,29.91,ENE,72,0.0,0.0,79,0.00,,,0.00,weatherlink.com 1.10,2013-06-18 03:25:00,
2013-06-17 23:40:00,63.4,58.0,29.93,ENE,72,0.0,1.0,81,0.00,,,0.00,weatherlink.com 1.10,2013-06-18 03:40:00,
2013-06-17 23:55:00,63.3,57.0,29.93,ENE,72,0.0,0.0,81,0.00,,,0.00,weatherlink.com 1.10,2013-06-18 03:55:00,